Benson, MN

9:23 PM CDT on September 28, 2016 (GMT -0500)
Benson Municipal

Weather History for KBBB - November, 2012

Change the Weather History Date:

Wednesday, November 7, 2012

  Actual Average Record
Temperature  
Mean Temperature 37 °F -  
Max Temperature 48 °F 44 °F 71 °F (1999)
Min Temperature 26 °F 26 °F -5 °F (1991)
Degree Days  
Heating Degree Days 28    
Moisture  
Dew Point 34 °F    
Average Humidity 82    
Maximum Humidity 100    
Minimum Humidity 58    
Precipitation  
Precipitation 0.00 in - - ()
Sea Level Pressure  
Sea Level Pressure 30.03 in    
Wind  
Wind Speed 7 mph (SW)    
Max Wind Speed 15 mph    
Max Gust Speed 22 mph    
Visibility 10 miles    
Events      
Averages and records for this station are not official NWS values.
T = Trace of Precipitation, MM = Missing Value Source: NWS Daily Summary

Daily Weather History Graph

Daily Weather History Graph

Search for Another Location

Airport or City:

Trip Planner

Search our weather history database for the weather conditions in past years. The results will help you decide how hot, cold, wet, or windy it might be!

Date:

Astronomy

Nov. 07, 2012 Rise Set
Actual Time 7:10 AM CST 5:01 PM CST
Civil Twilight 6:39 AM CST 5:32 PM CST
Nautical Twilight 6:04 AM CST 6:07 PM CST
Astronomical Twilight 5:29 AM CST 6:42 PM CST
Moon No Moon Rise 1:28 PM CST (11/7)
Length of Visible Light 10h 53m
Length of Day
9h 50m
Last Quarter, 43% of the Moon is Illuminated
Nov 7
Last Quarter
Nov 13
New
Nov 20
First Quarter
Nov 28
Full
Dec 6
Last Quarter

Hourly Weather History & Observations

Time (CST) Temp. Windchill Dew Point Humidity Pressure Visibility Wind Dir Wind Speed Gust Speed Precip Events Conditions
12:13 AM 39.2 °F 31.2 °F 35.6 °F 87% 30.03 in 10.0 mi North 13.8 mph 18.4 mph N/A   Overcast
12:32 AM 39.2 °F 33.6 °F 35.6 °F 87% 30.03 in 10.0 mi North 8.1 mph - N/A   Overcast
12:52 AM 37.4 °F 32.1 °F 35.6 °F 93% 30.03 in 10.0 mi North 6.9 mph - N/A   Overcast
1:13 AM 35.6 °F 30.7 °F 33.8 °F 93% 30.04 in 10.0 mi NNW 5.8 mph - N/A   Overcast
1:32 AM 33.8 °F 28.6 °F 33.8 °F 100% 30.04 in 10.0 mi NW 5.8 mph - N/A   Overcast
1:53 AM 35.6 °F 31.7 °F 33.8 °F 93% 30.05 in 10.0 mi NW 4.6 mph - N/A   Overcast
2:12 AM 37.4 °F 32.8 °F 35.6 °F 93% 30.05 in 10.0 mi NNW 5.8 mph - N/A   Overcast
2:53 AM 37.4 °F 33.8 °F 35.6 °F 93% 30.06 in 10.0 mi North 4.6 mph - N/A   Overcast
3:12 AM 37.4 °F 33.8 °F 35.6 °F 93% 30.06 in 10.0 mi NNW 4.6 mph - N/A   Overcast
3:32 AM 37.4 °F 32.8 °F 35.6 °F 93% 30.06 in 10.0 mi NNW 5.8 mph - N/A   Overcast
3:53 AM 37.4 °F 33.8 °F 35.6 °F 93% 30.06 in 10.0 mi NNW 4.6 mph - N/A   Overcast
4:12 AM 35.6 °F 31.7 °F 33.8 °F 93% 30.06 in 10.0 mi NNW 4.6 mph - N/A   Mostly Cloudy
4:32 AM 32.0 °F 27.5 °F 30.2 °F 93% 30.07 in 10.0 mi NW 4.6 mph - N/A   Clear
4:53 AM 32.0 °F 26.4 °F 30.2 °F 93% 30.07 in 10.0 mi NNW 5.8 mph - N/A   Clear
5:12 AM 30.2 °F 24.3 °F 30.2 °F 100% 30.08 in 10.0 mi NNW 5.8 mph - N/A   Clear
5:32 AM 28.4 °F 22.2 °F 28.4 °F 100% 30.08 in 10.0 mi North 5.8 mph - N/A   Clear
5:53 AM 28.4 °F 23.3 °F 26.6 °F 93% 30.09 in 10.0 mi NNW 4.6 mph - N/A   Clear
6:12 AM 28.4 °F 24.6 °F 28.4 °F 100% 30.09 in 10.0 mi NNW 3.5 mph - N/A   Clear
6:32 AM 28.4 °F - 26.6 °F 93% 30.09 in 10.0 mi Calm Calm - N/A   Clear
6:53 AM 28.4 °F - 26.6 °F 93% 30.09 in 10.0 mi Calm Calm - N/A   Clear
7:12 AM 26.6 °F - 26.6 °F 100% 30.09 in 7.0 mi Calm Calm - N/A   Clear
7:33 AM 26.6 °F - 26.6 °F 100% 30.09 in 10.0 mi Calm Calm - N/A   Clear
7:53 AM 26.6 °F - 26.6 °F 100% 30.10 in 10.0 mi Calm Calm - N/A   Clear
8:12 AM 28.4 °F 23.3 °F 28.4 °F 100% 30.10 in 10.0 mi West 4.6 mph - N/A   Clear
8:33 AM 32.0 °F - 30.2 °F 93% 30.10 in 10.0 mi Calm Calm - N/A   Clear
8:52 AM 33.8 °F - 30.2 °F 87% 30.10 in 10.0 mi Calm Calm - N/A   Clear
9:12 AM 35.6 °F - 32.0 °F 87% 30.10 in 10.0 mi Calm Calm - N/A   Clear
9:33 AM 37.4 °F - 33.8 °F 87% 30.10 in 10.0 mi Calm Calm - N/A   Clear
9:52 AM 37.4 °F - 33.8 °F 87% 30.10 in 10.0 mi Calm Calm - N/A   Clear
10:12 AM 39.2 °F - 35.6 °F 87% 30.10 in 10.0 mi Calm Calm - N/A   Clear
10:33 AM 42.8 °F - 35.6 °F 76% 30.10 in 10.0 mi Calm Calm - N/A   Clear
10:52 AM 42.8 °F 41.1 °F 35.6 °F 76% 30.11 in 10.0 mi WSW 3.5 mph - N/A   Clear
11:13 AM 42.8 °F 40.1 °F 35.6 °F 76% 30.10 in 10.0 mi WSW 4.6 mph - N/A   Clear
11:33 AM 44.6 °F 41.4 °F 35.6 °F 71% 30.09 in 10.0 mi WSW 5.8 mph - N/A   Clear
11:52 AM 46.4 °F 42.9 °F 37.4 °F 71% 30.08 in 10.0 mi West 6.9 mph - N/A   Clear
12:12 PM 46.4 °F 42.9 °F 37.4 °F 71% 30.07 in 10.0 mi West 6.9 mph - N/A   Clear
12:33 PM 46.4 °F 41.9 °F 35.6 °F 66% 30.06 in 10.0 mi SW 9.2 mph - N/A   Clear
12:52 PM 46.4 °F 42.4 °F 35.6 °F 66% 30.05 in 10.0 mi WSW 8.1 mph - N/A   Clear
1:13 PM 48.2 °F - 35.6 °F 62% 30.04 in 10.0 mi WSW 8.1 mph - N/A   Scattered Clouds
1:33 PM 48.2 °F - 35.6 °F 62% 30.03 in 10.0 mi SW 8.1 mph - N/A   Scattered Clouds
1:52 PM 48.2 °F - 33.8 °F 58% 30.03 in 10.0 mi SW 11.5 mph - N/A   Clear
1:59 PM 48.2 °F - 33.8 °F 58% 30.03 in 10.0 mi SW 11.5 mph - N/A   Clear
2:32 PM 48.2 °F - 35.6 °F 62% 30.02 in 10.0 mi SSW 6.9 mph - N/A   Clear
2:53 PM 48.2 °F - 35.6 °F 62% 30.01 in 10.0 mi South 12.7 mph - N/A   Clear
3:13 PM 48.2 °F - 33.8 °F 58% 30.01 in 10.0 mi SW 10.4 mph - N/A   Clear
3:37 PM 46.4 °F 41.1 °F 35.6 °F 66% 30.00 in 10.0 mi SSW 11.5 mph - N/A   Clear
3:53 PM 46.4 °F 42.4 °F 35.6 °F 66% 30.00 in 10.0 mi South 8.1 mph - N/A   Clear
4:13 PM 46.4 °F 42.4 °F 35.6 °F 66% 30.00 in 10.0 mi South 8.1 mph - N/A   Clear
4:32 PM 46.4 °F 42.4 °F 35.6 °F 66% 29.99 in 10.0 mi South 8.1 mph - N/A   Clear
5:13 PM 44.6 °F 40.2 °F 35.6 °F 71% 29.98 in 10.0 mi South 8.1 mph - N/A   Clear
5:32 PM 42.8 °F 37.5 °F 35.6 °F 76% 29.98 in 10.0 mi South 9.2 mph - N/A   Clear
5:53 PM 42.8 °F 37.5 °F 35.6 °F 76% 29.98 in 10.0 mi South 9.2 mph - N/A   Clear
6:12 PM 42.8 °F 37.5 °F 35.6 °F 76% 29.98 in 10.0 mi South 9.2 mph - N/A   Clear
6:32 PM 42.8 °F 37.0 °F 35.6 °F 76% 29.98 in 10.0 mi South 10.4 mph - N/A   Clear
6:53 PM 42.8 °F 37.5 °F 35.6 °F 76% 29.98 in 10.0 mi South 9.2 mph 16.1 mph N/A   Clear
7:12 PM 42.8 °F 36.6 °F 35.6 °F 76% - 10.0 mi South 11.5 mph - N/A   Clear
7:33 PM 42.8 °F 36.2 °F 33.8 °F 70% 29.97 in 10.0 mi South 12.7 mph - N/A   Clear
7:50 PM 41.0 °F 34.3 °F 33.8 °F 76% 29.97 in 10.0 mi South 11.5 mph - N/A   Clear
8:12 PM 41.0 °F 34.3 °F 33.8 °F 76% 29.96 in 10.0 mi South 11.5 mph 19.6 mph N/A   Clear
8:33 PM 39.2 °F 31.2 °F 33.8 °F 81% 29.95 in 10.0 mi South 13.8 mph - N/A   Clear
8:53 PM 39.2 °F 32.0 °F 33.8 °F 81% 29.96 in 10.0 mi South 11.5 mph 21.9 mph N/A   Clear
9:12 PM 39.2 °F 31.2 °F 33.8 °F 81% 29.97 in 10.0 mi South 13.8 mph 17.3 mph N/A   Clear
9:33 PM 39.2 °F 31.6 °F 33.8 °F 81% 29.97 in 10.0 mi South 12.7 mph 18.4 mph N/A   Clear
9:53 PM 39.2 °F 31.6 °F 33.8 °F 81% 29.96 in 10.0 mi South 12.7 mph 19.6 mph N/A   Clear
10:12 PM 37.4 °F 29.3 °F 33.8 °F 87% 29.96 in 10.0 mi South 12.7 mph - N/A   Clear
10:33 PM 37.4 °F 29.3 °F 33.8 °F 87% 29.95 in 10.0 mi South 12.7 mph 19.6 mph N/A   Clear
10:53 PM 37.4 °F 29.3 °F 33.8 °F 87% 29.94 in 10.0 mi South 12.7 mph 18.4 mph N/A   Clear
11:12 PM 37.4 °F 29.3 °F 33.8 °F 87% 29.94 in 10.0 mi South 12.7 mph - N/A   Clear
11:33 PM 37.4 °F 28.5 °F 33.8 °F 87% 29.93 in 10.0 mi South 15.0 mph 19.6 mph N/A   Clear
11:52 PM 37.4 °F 28.5 °F 33.8 °F 87% 29.93 in 10.0 mi South 15.0 mph 18.4 mph N/A   Clear